Location: Appeville
(49.3218°N, 1.3427°W)
Time: 01:07:50
(UTC+00:00)

Cosmos 1072 Rocket - Pass Details

Date: 08 December 2019
Orbit: 949 x 1008 km, 82.9° (Epoch: 27 January)

Event Time Altitude Azimuth Distance (km) Brightness Sun altitude
Rises 04:44:35 0° 192° (SSW) 3,609 7.4 -28.6°
Enters shadow 04:44:48 - 192° (SSW) 3,526 7.3 -28.6°
Exits shadow 04:52:19 65° 222° (SW) 1,041 4.4 -27.4°
Maximum altitude 04:53:09 76° 280° (W) 984 4.3 -27.3°
Drops below altitude 10° 04:59:20 10° 7° (N) 2,702 6.8 -26.2°
Sets 05:01:52 0° 9° (N) 3,659 7.6 -25.8°
